Simultaneous Nadir Overpasses (SNOs) Predictions

Prediction of SNOs between GOES-14 and NOAA-20 Satellite Orbit:

Table of predicted SNOs for the next 14.0 days since TLE Epoch: 1/20/2024
Index Date Time (GOES-14) GOES-14 Lat,Lon NOAA-20 Lat,Lon Distance(km) Time Diff (sec)
1 01/20/2024 20:23:57 0.05,-108.55 0.98,-104.49 462.89 80
2 01/22/2024 08:45:45 -0.04,-108.54 0.24,-109.75 138.84 80
3 01/23/2024 08:24:22 -0.04,-108.53 -0.79,-105.23 376.83 80
4 01/24/2024 20:46:19 0.03,-108.53 -0.40,-110.54 228.45 80
5 01/25/2024 20:30:15 0.03,-108.53 0.58,-106.00 287.48 80
6 01/27/2024 08:52:04 -0.02,-108.52 0.57,-111.28 313.64 80
7 01/28/2024 08:30:40 -0.03,-108.52 -0.41,-106.74 202.26 80
8 01/29/2024 20:52:37 0.02,-108.52 -0.76,-112.05 402.76 80
9 01/30/2024 20:36:32 0.03,-108.52 0.22,-107.52 113.35 80
10 02/01/2024 08:58:22 -0.02,-108.52 0.92,-112.80 487.47 80
11 02/02/2024 08:36:57 -0.02,-108.51 -0.07,-108.26 28.44 80
